Location: Observatoire de Paris
(48.8363°N, 2.3365°E)
Time: 03:16:08
(UTC+01:00)

Vanguard 3 - Pass Details

Date: 03 August 2021
Orbit: 510 x 3260 km, 33.3° (Epoch: 18 September)

Event Time Altitude Azimuth Distance (km) Brightness Sun altitude
Rises 00:24:19 0° 275° (W) 7,042 12.1 -23.3°
Reaches altitude 10° 00:30:19 10° 264° (W) 6,167 11.6 -23.4°
Maximum altitude 00:43:57 24° 221° (SW) 4,938 10.7 -23.6°
Enters shadow 00:47:23 23° 207° (SSW) 4,903 10.6 -23.6°
